Date String (YYYY-MM-DD hh:mm:ss) UTC,Instrument flags,absolute air pressure of the measurement (hPa),sample flow rate (lpm),inlet stack bypass flow (lpm),air temperature of the measurement (°C),ambient temperature measured by the external sensor (°C),aerosol sample conditioner tube jacket temperature (°C),OPC LED temperature (°C),internal box temperature (°C),relative humidity of the measurement (%),span deviation,mass concentration of particles derived from Lorenz-Mie calculation of OPC scattering (μg/m³),mass concentration of particles derived from Lorenz-Mie calculation of OPC scattering (μg/m³),mass concentration of particles derived from Lorenz-Mie calculation of OPC scattering (μg/m³)
DateTimeUTC,F1_M11,P_M11,Q1_M11,Q2_M11,T1_M11,T2_M11,T3_M11,T4_M11,T5_M11,U1_M11,ZSPAN_M11,X2_M11,X0_M11,X1_M11
2024-03-25 01:00:00,SystemResetWarning,0811.4,5.00,000.00,021.0,019.9,000.0,029.9,022.9,20.2,0000.0,0004.08,0005.58,0003.97
2024-03-25 01:01:00,SystemResetWarning,0811.5,5.01,000.00,021.0,019.9,000.0,029.9,022.9,20.2,0000.0,0004.13,0005.70,0004.01
2024-03-25 01:02:00,SystemResetWarning,0811.5,5.01,000.00,021.0,019.9,000.0,029.9,022.9,20.2,0000.0,0004.17,0005.81,0004.05
2024-03-25 01:03:00,SystemResetWarning,0811.5,4.99,000.00,021.0,019.9,000.0,029.9,022.9,20.1,0000.0,0004.23,0005.96,0004.09
2024-03-25 01:04:00,SystemResetWarning,0811.5,4.99,000.00,021.0,019.9,000.0,029.9,022.9,20.1,0000.0,0004.29,0006.20,0004.12
2024-03-25 01:05:00,SystemResetWarning,0811.5,5.00,000.00,021.0,019.9,000.0,029.8,022.9,20.0,0000.0,0004.31,0006.22,0004.14
2024-03-25 01:06:00,SystemResetWarning,0811.5,5.02,000.00,021.0,019.8,000.0,029.8,022.8,20.0,0000.0,0004.35,0006.32,0004.17
2024-03-25 01:07:00,SystemResetWarning,0811.6,5.00,000.00,021.0,019.8,000.0,029.8,022.8,19.9,0000.0,0004.36,0006.33,0004.18
2024-03-25 01:08:00,SystemResetWarning,0811.7,5.00,000.00,021.0,019.8,000.0,029.8,022.8,19.9,0000.0,0004.37,0006.29,0004.21
2024-03-25 01:09:00,SystemResetWarning,0811.7,5.00,000.00,020.9,019.8,000.0,029.8,022.8,19.9,0000.0,0004.40,0006.31,0004.25
2024-03-25 01:10:00,SystemResetWarning,0811.6,5.00,000.00,020.9,019.8,000.0,029.8,022.8,19.9,0000.0,0004.46,0006.37,0004.31
2024-03-25 01:11:00,SystemResetWarning,0811.6,4.99,000.00,020.9,019.7,000.0,029.8,022.7,19.8,0000.0,0004.52,0006.56,0004.36
2024-03-25 01:12:00,SystemResetWarning,0811.6,5.00,000.00,020.9,019.7,000.0,029.7,022.7,19.8,0000.0,0004.56,0006.67,0004.40
2024-03-25 01:13:00,SystemResetWarning,0811.6,4.99,000.00,020.9,019.7,000.0,029.7,022.7,19.7,0000.0,0004.60,0006.92,0004.44
2024-03-25 01:14:00,SystemResetWarning,0811.8,5.00,000.00,020.9,019.7,000.0,029.7,022.7,19.7,0000.0,0004.63,0007.06,0004.48
2024-03-25 01:15:00,SystemResetWarning,0811.8,5.00,000.00,020.8,019.7,000.0,029.7,022.7,19.7,0000.0,0004.64,0006.97,0004.52
2024-03-25 01:16:00,SystemResetWarning,0811.8,5.00,000.00,020.8,019.7,000.0,029.7,022.7,19.7,0000.0,0004.67,0007.01,0004.56
2024-03-25 01:17:00,SystemResetWarning,0811.8,5.01,000.00,020.8,019.7,000.0,029.7,022.7,19.7,0000.0,0004.70,0007.09,0004.58
2024-03-25 01:18:00,SystemResetWarning,0811.8,5.00,000.00,020.8,019.7,000.0,029.7,022.7,19.7,0000.0,0004.75,0007.17,0004.62
2024-03-25 01:19:00,SystemResetWarning,0811.9,5.00,000.00,020.8,019.6,000.0,029.6,022.6,19.7,0000.0,0004.79,0007.26,0004.66
2024-03-25 01:20:00,SystemResetWarning,0811.8,5.00,000.00,020.8,019.6,000.0,029.6,022.6,19.7,0000.0,0004.83,0007.38,0004.69
2024-03-25 01:21:00,SystemResetWarning,0811.9,5.00,000.00,020.8,019.6,000.0,029.6,022.6,19.7,0000.0,0004.88,0007.46,0004.72
2024-03-25 01:22:00,SystemResetWarning,0811.9,4.99,000.00,020.7,019.6,000.0,029.6,022.6,19.6,0000.0,0004.89,0007.46,0004.73
2024-03-25 01:23:00,SystemResetWarning,0812.0,4.99,000.00,020.7,019.6,000.0,029.6,022.5,19.6,0000.0,0004.90,0007.44,0004.75
2024-03-25 01:24:00,SystemResetWarning,0812.1,5.01,000.00,020.7,019.5,000.0,029.6,022.5,19.5,0000.0,0004.93,0009.16,0004.78
2024-03-25 01:25:00,SystemResetWarning,0812.1,5.01,000.00,020.7,019.5,000.0,029.5,022.5,19.5,0000.0,0004.95,0009.42,0004.81
2024-03-25 01:26:00,SystemResetWarning,0812.1,5.00,000.00,020.7,019.5,000.0,029.5,022.5,19.4,0000.0,0004.99,0009.46,0004.83
2024-03-25 01:27:00,SystemResetWarning,0812.1,5.00,000.00,020.6,019.5,000.0,029.5,022.5,19.5,0000.0,0005.01,0009.48,0004.86
2024-03-25 01:28:00,SystemResetWarning,0812.0,5.00,000.00,020.6,019.5,000.0,029.5,022.5,19.4,0000.0,0005.04,0009.52,0004.89
2024-03-25 01:29:00,SystemResetWarning,0812.1,5.00,000.00,020.6,019.4,000.0,029.5,022.5,19.3,0000.0,0005.07,0009.57,0004.90
2024-03-25 01:30:00,SystemResetWarning,0812.1,4.99,000.00,020.6,019.4,000.0,029.5,022.4,19.4,0000.0,0005.08,0009.63,0004.91
2024-03-25 01:31:00,SystemResetWarning,0812.1,5.00,000.00,020.6,019.4,000.0,029.5,022.4,19.4,0000.0,0005.10,0009.74,0004.92
2024-03-25 01:32:00,SystemResetWarning,0812.1,5.00,000.00,020.6,019.4,000.0,029.4,022.4,19.4,0000.0,0005.09,0009.75,0004.91
2024-03-25 01:33:00,SystemResetWarning,0812.1,5.00,000.00,020.6,019.4,000.0,029.4,022.4,19.3,0000.0,0005.09,0009.74,0004.92
2024-03-25 01:34:00,SystemResetWarning,0812.1,5.00,000.00,020.6,019.4,000.0,029.4,022.4,19.3,0000.0,0005.10,0009.74,0004.92
2024-03-25 01:35:00,SystemResetWarning,0812.2,5.00,000.00,020.5,019.4,000.0,029.4,022.4,19.2,0000.0,0005.10,0008.09,0004.91
2024-03-25 01:36:00,SystemResetWarning,0812.2,5.01,000.00,020.5,019.4,000.0,029.4,022.4,19.2,0000.0,0005.12,0007.78,0004.91
2024-03-25 01:37:00,SystemResetWarning,0812.2,5.01,000.00,020.5,019.4,000.0,029.3,022.3,19.2,0000.0,0005.11,0007.77,0004.90
2024-03-25 01:38:00,SystemResetWarning,0812.2,5.00,000.00,020.5,019.3,000.0,029.3,022.3,19.2,0000.0,0005.10,0008.14,0004.90
2024-03-25 01:39:00,SystemResetWarning,0812.2,4.99,000.00,020.5,019.3,000.0,029.3,022.3,19.2,0000.0,0005.08,0008.49,0004.90
2024-03-25 01:40:00,SystemResetWarning,0812.3,5.00,000.00,020.4,019.3,000.0,029.3,022.3,19.1,0000.0,0005.09,0008.52,0004.90
2024-03-25 01:41:00,SystemResetWarning,0812.3,5.02,000.00,020.4,019.3,000.0,029.3,022.2,19.1,0000.0,0005.10,0008.52,0004.91
2024-03-25 01:42:00,SystemResetWarning,0812.3,5.01,000.00,020.4,019.2,000.0,029.3,022.2,19.1,0000.0,0005.07,0008.35,0004.90
2024-03-25 01:43:00,SystemResetWarning,0812.3,4.99,000.00,020.4,019.2,000.0,029.2,022.2,19.1,0000.0,0005.04,0008.27,0004.90
2024-03-25 01:44:00,SystemResetWarning,0812.4,4.99,000.00,020.4,019.2,000.0,029.2,022.2,19.1,0000.0,0005.06,0008.30,0004.91
2024-03-25 01:45:00,SystemResetWarning,0812.4,5.00,000.00,020.3,019.2,000.0,029.2,022.2,19.1,0000.0,0005.08,0008.36,0004.91
2024-03-25 01:46:00,SystemResetWarning,0812.4,5.00,000.00,020.3,019.2,000.0,029.2,022.2,19.1,0000.0,0005.06,0008.34,0004.90
2024-03-25 01:47:00,SystemResetWarning,0812.4,5.00,000.00,020.3,019.2,000.0,029.2,022.1,19.1,0000.0,0005.03,0008.24,0004.89
2024-03-25 01:48:00,SystemResetWarning,0812.4,4.99,000.00,020.3,019.2,000.0,029.2,022.1,19.1,0000.0,0005.03,0008.24,0004.89
2024-03-25 01:49:00,SystemResetWarning,0812.4,5.00,000.00,020.3,019.2,000.0,029.2,022.1,19.1,0000.0,0005.04,0007.88,0004.88
2024-03-25 01:50:00,SystemResetWarning,0812.4,5.01,000.00,020.3,019.2,000.0,029.1,022.1,19.1,0000.0,0005.02,0007.49,0004.86
2024-03-25 01:51:00,SystemResetWarning,0812.4,5.01,000.00,020.3,019.2,000.0,029.1,022.1,19.1,0000.0,0005.00,0007.43,0004.86
2024-03-25 01:52:00,SystemResetWarning,0812.5,5.00,000.00,020.2,019.2,000.0,029.1,022.1,19.1,0000.0,0004.97,0007.36,0004.86
2024-03-25 01:53:00,SystemResetWarning,0812.5,5.00,000.00,020.2,019.2,000.0,029.1,022.1,19.1,0000.0,0004.99,0007.42,0004.85
2024-03-25 01:54:00,SystemResetWarning,0812.5,4.99,000.00,020.2,019.1,000.0,029.1,022.1,19.0,0000.0,0004.97,0007.41,0004.82
2024-03-25 01:55:00,SystemResetWarning,0812.5,5.00,000.00,020.2,019.1,000.0,029.1,022.1,19.1,0000.0,0004.95,0007.38,0004.81
2024-03-25 01:56:00,SystemResetWarning,0812.5,5.00,000.00,020.2,019.1,000.0,029.0,022.1,19.1,0000.0,0004.93,0007.34,0004.81
2024-03-25 01:57:00,SystemResetWarning,0812.6,5.00,000.00,020.2,019.1,000.0,029.0,022.1,19.1,0000.0,0004.94,0007.30,0004.80
2024-03-25 01:58:00,SystemResetWarning,0812.6,5.02,000.00,020.2,019.1,000.0,029.0,022.1,19.1,0000.0,0004.95,0007.32,0004.80
2024-03-25 01:59:00,SystemResetWarning,0812.6,5.00,000.00,020.2,019.1,000.0,029.0,022.0,19.1,0000.0,0004.94,0007.32,0004.79
